Starlink 33564

operational
NORAD ID: 62286 Int'l Des: 2024-237 Owner: SPXS Country: US Constellation: starlink
LEOCIRCULAR

About Starlink 33564

Description loading...

Live Position

Loading 3D Globe...

Upcoming Passes

Altitude History

Altitude vs Time

uPlot chart will show altitude changes over time

Two-Line Element Set

1 62286U 24237V 25352.23940618 .00019422 00000-0 71338-3 0 9995
2 62286 43.0027 316.4813 0001438 278.3046 81.7643 15.27582859 58738
Epoch: Dec 18, 2025 • Age: 12 hours

Current Status

Altitude 483.1 km
Velocity 7.63 km/s
Sub-Earth Point 21.32°N, 120.95°E
Launch Date Dec 8, 2024
Age 1 years
Type internet

Technical Details

Classification Payload
Mass 530.00 kg
Dry Mass 500.00 kg
Total Mass 530.00 kg
Length 0.30 m
Diameter 4.10 m
Span 29.00 m
Shape Box + pan
Manufacturer SPXS
Bus Type Starlink V2MO
Phase Status In Orbit
Owner/State SPXS/US

Large Constellations

Loading constellations...